Hourly Data Report for October 22, 2013

All times are specified in Local Standard Time (LST). Add 1 hour to adjust for Daylight Saving Time where and when it is observed.

ST LEONARD CS
NEW BRUNSWICK

47°09'28.050" N
67°49'55.014" W
245.00 m
810I001
71019
WIY

Download Data

Hourly Data (October 2013)
Hourly Data Report for October 22, 2013
Temp Definition
°C
Dew Point Temp Definition
°C
Rel Hum Definition
%
Wind Dir Definition
10's deg

Wind Spd Definition
km/h
Visibility Definition
km
Stn Press Definition
kPa
Hmdx Definition


Wind Chill Definition


Weather Definition


TIME
00:00 5.1 3.4 89 12 7   98.45     LegendNANA
01:00 5.8 2.8 81 12 9   98.45     LegendNANA
02:00 5.1 3.3 88 10 6   98.43     LegendNANA
03:00 5.3 3.3 87 14 9   98.41     LegendNANA
04:00 5.2 4.2 93 14 11   98.39     LegendNANA
05:00 5.2 4.5 95 13 9   98.33     LegendNANA
06:00 5.4 4.8 96 14 13   98.30     LegendNANA
07:00 5.8 5.2 96 11 13   98.19     LegendNANA
08:00 5.7 5.2 97 11 13   98.11     LegendNANA
09:00 7.0 6.2 95 12 17   98.00     LegendNANA
10:00 8.2 7.0 92 14 17   97.92     LegendNANA
11:00 9.5 7.9 90 16 28   97.87     LegendNANA
12:00 9.5 7.8 89 17 24   97.82     LegendNANA
13:00 11.0 8.5 85 17 26   97.68     LegendNANA
14:00 11.0 8.5 85 17 20   97.59     LegendNANA
15:00 10.1 8.9 92 17 13   97.52     LegendNANA
16:00 10.0 9.0 93 16 19   97.49     LegendNANA
17:00 10.3 9.3 94 17 19   97.41     LegendNANA
18:00 10.3 9.4 94 17 15   97.37     LegendNANA
19:00 10.2 9.4 95 17 15   97.32     LegendNANA
20:00 5.8 4.3 90 28 15   97.44     LegendNANA
21:00 5.5 3.7 88 27 11   97.46     LegendNANA
22:00 5.2 3.7 90 25 6   97.49     LegendNANA
23:00 5.0 3.4 89 24 6   97.50     LegendNANA

Notes on Data Quality.

Legend

  • E = Estimated
  • M = Missing
  • NA = Not Available
  • ‡ = Partner data that is not subject to review by the National Climate Archives
Date modified: